Location: Gwatt
(46.7204°N, 7.6223°E)
Time: 01:03:39
(UTC+00:00)

Transit 2A - Pass Details

Date: 21 January 2021
Orbit: 601 x 958 km, 66.7° (Epoch: 07 March)

Event Time Altitude Azimuth Distance (km) Brightness Sun altitude
Rises 05:51:32 0° 254° (WSW) 3,450 - -12.5°
Reaches altitude 10° 05:54:36 10° 268° (W) 2,454 - -12.0°
Exits shadow 05:56:03 16° 279° (W) 2,058 7.6 -11.8°
Maximum altitude 05:59:04 24° 320° (NW) 1,612 7.2 -11.3°
Drops below altitude 10° 06:03:14 10° 14° (NNE) 2,267 8.4 -10.6°
Sets 06:05:58 0° 29° (NNE) 3,127 9.3 -10.2°
